Location: Newark
(58.8333°N, 23.5833°E)
Time: 21:25:18
(UTC+00:00)

METEOR M2 - Pass Details

Date: 09 December 2019
Orbit: 819 x 827 km, 98.5° (Epoch: 22 January)

Event Time Altitude Azimuth Distance (km) Brightness Sun altitude
Exits shadow 18:20:01 30° 327° (NNW) 1,443 ? -35.0°
Drops below altitude 10° 18:22:45 10° 338° (NNW) 2,433 ? -35.4°
Sets 18:25:09 0° 342° (NNW) 3,369 ? -35.7°
